Orbital Elements at Epoch 2459200.5 (2020-Dec-17.0) TDB
Reference: JPL 23 (heliocentric ecliptic J2000)
Element | Value | Uncertainty (1-sigma) | Units |
e | .02021221490991508 | 5.101e-08 | |
a | 2.808450500615379 | 2.3872e-08 | au |
q | 2.751685495533082 | 1.4285e-07 | au |
i | 7.652818028540799 | 5.0222e-06 | deg |
node | 294.2080672495498 | 3.8805e-05 | deg |
peri | 24.12369865453128 | 0.00012906 | deg |
M | 215.9174755010859 | 0.00012567 | deg |
tp | 2459888.530033135651 (2022-Nov-05.03003314) | 0.00060213 | TDB |
period | 1719.089895115636 4.71 | 2.1918e-05 6.001e-08 | d yr |
n | .2094131325085733 | 2.67e-09 | deg/d |
Q | 2.865215505697676 | 2.4354e-08 | au |
|
| | Orbit Determination Parameters
Additional Information
|